Temp
76 76 77 77 78 78 77 77 77 77 77 78 77 78 77 77 76 75 75 74 74 74 72 71 68 69 71 74 74 76 75 76 75 72 71 71 67 69 71 72 72 73 72 69 70 69 67 62 63 68 70 69 69 71 73 71 69 70 72 72 72 73 74
77 77 78 78 77 77 76 75 76 77 77 76 78 77 77 77 76 75 73 71 72 73 73 69 67 69 68 69 70 70 72 73 74 74 72 71 70 69 70 69 73 72 69 68 68 70 68 66 65 65 66 70 69 70 70 71 70 70 74 74 76 77 76
77 78 77 77 77 74 71 68 70 75 76 76 76 77 77 78 77 75 74 72 68 68 70 69 72 72 71 73 72 71 71 71 72 71 69 69 71 70 70 72 71 70 70 69 67 66 67 70 63 64 66 65 63 66 70 67 69 72 75 75 74 76 76
76 76 75 74 75 71 69 67 67 73 76 76 76 76 76 76 76 76 72 69 68 69 69 69 69 69 69 69 69 71 72 72 71 71 70 69 71 72 74 74 73 71 69 69 68 69 66 66 67 68 66 70 67 65 68 69 72 75 75 76 76 76 76
76 75 75 74 72 72 69 68 70 72 75 76 75 75 74 75 75 74 73 71 68 70 70 69 69 70 70 70 70 70 71 71 71 70 71 69 69 69 73 73 74 73 71 72 72 71 70 69 70 69 69 73 71 72 71 70 74 76 75 76 77 77 77
76 76 75 74 71 69 69 70 71 72 74 74 75 75 74 74 73 73 72 71 69 69 69 69 68 69 70 68 68 68 69 69 68 67 66 68 67 65 69 73 73 70 69 73 74 73 74 75 72 70 73 75 68 67 71 72 71 75 77 77 79 79 78
75 75 72 70 67 70 69 70 71 73 73 74 75 75 75 75 74 73 74 71 71 70 68 68 68 70 69 68 67 66 66 69 68 68 67 68 67 71 73 71 71 72 73 75 75 74 74 71 70 69 68 70 71 69 72 73 75 72 74 79 80 79 78
75 75 75 73 70 68 71 73 73 74 74 76 77 76 76 74 74 74 73 72 70 70 69 68 70 70 68 68 70 72 72 67 67 67 67 69 71 72 70 68 67 70 74 77 76 75 78 75 75 71 70 65 63 69 66 72 74 74 74 78 80 78 77
76 75 75 74 74 73 73 73 74 72 74 75 77 77 77 75 73 73 73 70 70 70 70 70 70 70 70 67 69 72 71 73 70 69 68 68 70 70 67 67 68 69 75 76 77 76 77 77 76 74 72 71 66 63 67 66 69 68 76 75 78 79 77
74 74 74 74 74 74 74 73 70 73 73 72 72 74 75 75 74 74 74 73 71 71 70 70 70 70 70 69 69 70 71 72 72 71 70 70 69 68 66 66 68 71 73 76 77 75 75 74 77 78 76 74 73 68 65 65 66 65 72 77 74 76 79
75 75 75 75 74 74 72 70 72 72 72 73 71 72 75 74 73 74 73 73 72 72 71 71 71 70 70 70 70 70 71 71 70 71 70 69 68 66 66 66 67 69 73 75 73 74 73 74 76 76 73 73 76 72 70 66 65 70 70 76 77 75 78
76 76 76 75 73 72 71 70 71 71 70 72 72 72 72 74 74 73 73 74 72 72 73 71 69 69 69 69 69 70 71 71 69 69 70 68 68 66 65 64 66 69 73 71 72 72 72 75 73 76 77 76 76 74 70 69 62 68 75 70 74 79 79
77 76 76 75 72 71 69 67 67 66 66 71 71 70 74 73 74 72 73 69 71 73 73 72 70 67 66 66 68 69 70 71 70 70 70 70 69 67 67 67 70 72 72 71 70 72 73 76 76 73 74 75 74 73 71 69 67 66 70 72 72 77 80
75 76 75 73 71 70 67 67 68 68 69 71 73 73 75 75 75 74 75 69 71 71 71 71 70 67 65 66 68 69 71 72 71 70 68 69 69 68 69 67 70 73 73 71 70 72 73 74 74 73 75 72 71 72 71 69 67 67 70 75 74 77 80
74 74 72 71 70 68 66 66 67 68 69 69 74 76 76 76 76 76 73 73 71 73 73 74 71 69 66 67 70 72 73 72 71 69 67 68 70 69 67 70 71 74 74 73 73 75 77 77 79 76 75 75 75 77 72 72 68 67 67 71 74 79 78
72 71 71 70 69 68 68 68 69 68 68 68 71 74 75 75 75 74 72 70 70 72 73 70 72 70 69 70 71 71 72 70 68 67 66 67 71 71 69 71 73 75 74 72 72 75 75 76 78 77 76 77 75 75 77 76 73 69 69 70 74 76 76
70 70 69 69 68 68 68 67 66 65 67 67 66 71 76 73 75 72 71 73 75 74 75 71 69 72 73 72 72 70 68 66 66 67 67 69 70 71 72 71 73 74 72 71 73 74 73 73 74 75 75 75 75 76 75 73 74 72 72 70 74 77 76
70 69 69 69 68 69 68 66 66 68 69 68 71 71 69 75 71 69 67 68 72 70 70 69 70 70 70 69 71 67 64 67 67 68 70 70 69 68 70 70 73 75 73 72 71 72 73 71 73 74 72 75 77 75 75 74 76 76 73 72 73 77 76
69 69 69 69 69 68 67 67 68 69 70 71 71 68 67 67 69 68 68 69 69 70 66 67 69 70 68 67 66 67 65 67 68 72 72 72 71 71 71 73 71 74 75 73 72 71 73 73 70 75 75 75 75 74 71 76 76 76 75 74 74 73 74
67 68 68 68 69 69 70 68 68 69 70 68 68 67 66 67 67 67 67 67 66 68 71 73 74 74 74 73 70 66 67 70 72 72 71 71 71 71 69 71 70 72 74 74 71 72 73 72 71 70 71 74 75 74 74 73 75 76 75 74 75 74 74
68 68 68 69 69 70 69 70 70 68 66 66 65 66 66 66 67 68 67 66 66 68 71 71 71 74 75 74 73 73 70 71 72 71 70 69 67 67 69 73 72 69 70 72 73 71 73 66 65 65 68 71 72 72 72 74 74 74 74 74 73 73 74
69 69 69 69 69 70 69 70 69 71 70 69 66 66 68 69 69 68 68 67 66 68 68 70 70 71 71 72 72 72 72 72 71 69 68 66 66 66 67 70 71 72 68 62 58 62 63 64 68 66 64 65 64 68 69 73 73 73 74 73 73 74 73
69 69 70 69 69 69 70 69 70 70 69 67 65 66 68 67 67 67 66 66 67 67 66 68 65 59 62 69 70 70 68 68 69 67 65 66 67 66 71 70 66 59 57 55 53 49 49 51 55 66 67 67 66 70 71 71 72 72 72 71 72 72 71
68 68 69 69 69 69 69 68 68 69 69 66 65 66 66 66 65 65 65 66 65 65 66 66 52 51 52 56 66 67 67 67 66 65 65 66 66 67 70 71 68 63 61 58 54 44 46 45 44 44 45 49 58 70 69 67 72 69 70 70 72 72 71
67 67 68 68 69 68 67 67 66 66 67 67 66 65 65 65 65 66 65 64 64 65 66 57 48 48 49 50 58 68 67 65 64 64 65 65 68 70 70 71 72 73 72 71 68 63 53 44 44 45 45 46 45 45 49 64 69 70 70 71 68 67 70
67 66 66 67 67 66 66 65 64 63 62 62 65 64 65 66 65 65 64 64 64 64 61 44 45 46 48 48 50 61 66 65 64 64 69 69 70 71 71 71 70 72 71 66 71 71 68 62 49 47 49 50 49 48 46 45 50 65 71 68 67 65 69
66 66 66 66 66 65 64 62 62 61 61 61 62 62 61 61 62 63 63 62 60 58 54 44 41 42 44 46 49 56 72 67 68 70 70 73 74 71 70 73 71 69 71 73 74 72 71 69 70 70 72 72 69 61 52 50 51 53 64 73 70 66 67
64 64 65 65 64 63 62 62 61 61 60 59 59 58 58 60 60 59 60 59 58 55 51 41 41 41 42 43 44 52 74 74 74 72 72 74 71 72 70 70 71 72 73 73 73 72 72 73 73 72 69 66 64 60 57 57 57 65 70 69 68 66 64
63 64 64 64 63 62 62 61 60 60 59 59 58 58 57 57 58 58 58 58 55 53 50 41 41 41 42 43 43 66 73 73 71 70 71 69 64 67 70 67 68 70 73 72 54 50 65 75 72 70 66 65 63 59 54 46 42 48 57 61 61 60 58
61 63 63 63 62 60 60 60 60 60 59 58 56 55 54 55 56 56 56 56 55 53 51 43 40 40 41 39 53 70 70 69 72 73 69 67 67 63 61 68 73 71 69 64 45 41 41 57 71 69 68 66 65 63 60 57 46 43 43 43 42 43 44
61 61 61 61 60 60 59 60 60 60 58 56 53 54 53 54 54 53 53 54 54 52 51 46 41 41 43 41 49 67 64 60 65 70 69 69 66 63 57 47 62 70 65 59 41 41 42 61 70 69 68 65 64 62 61 61 61 54 43 43 43 43 45
60 60 59 59 60 59 58 58 59 60 59 57 55 55 54 53 52 51 50 49 49 50 50 48 42 41 42 44 56 66 62 61 61 64 68 67 65 62 59 53 45 48 52 47 40 42 43 56 66 68 68 67 64 63 62 63 61 61 61 60 59 59 57
59 59 59 58 58 58 59 58 57 58 57 57 56 56 55 54 53 50 50 49 47 47 48 48 44 41 42 44 48 63 61 60 63 65 66 64 62 59 57 54 48 40 40 40 41 42 42 47 63 68 70 67 64 61 64 65 64 65 66 66 64 66 65
58 58 59 59 58 57 57 56 56 56 56 56 56 55 54 54 54 53 52 49 48 46 46 46 46 40 41 42 45 53 62 60 58 56 55 54 55 54 52 51 49 42 40 40 41 41 43 44 48 58 58 58 57 56 60 65 62 56 62 61 62 63 64
57 56 57 57 56 55 56 56 55 54 54 55 55 55 55 55 54 53 52 51 49 47 46 43 45 42 41 42 42 45 55 56 56 54 48 47 47 48 49 47 47 42 39 40 40 42 42 43 44 55 50 44 44 46 63 63 63 63 62 61 62 62 63
55 55 54 54 53 53 54 54 55 55 53 53 52 52 52 53 53 53 52 51 50 49 48 45 41 43 40 41 41 41 42 48 45 52 49 47 46 45 46 46 45 41 40 40 40 40 42 43 46 46 42 43 45 46 53 59 59 59 59 60 60 60 60
56 54 53 53 52 51 51 51 52 53 54 53 51 50 50 51 51 50 50 50 51 52 51 49 43 40 40 39 40 41 41 41 43 48 47 45 44 43 43 43 42 40 40 41 41 41 40 41 44 41 42 42 44 50 58 57 57 58 56 58 58 59 60
MSLP
1014.08 1013.92 1013.64 1013.68 1013.60 1013.76 1014.04 1014.20 1014.28 1014.20 1014.16 1014.08 1014.12 1014.08 1014.08 1014.12 1014.28 1014.48 1014.60 1014.84 1015.00 1015.00 1015.16 1015.56 1015.88 1015.84 1015.56 1015.28 1015.36 1015.36 1015.72 1015.76 1015.96 1016.56 1016.92 1017.04 1017.60 1017.56 1017.44 1017.48 1017.44 1017.44 1017.68 1018.20 1018.24 1018.64 1019.00 1020.08 1020.12 1019.56 1019.48 1019.60 1019.76 1019.52 1019.40 1019.68 1019.96 1020.08 1019.96 1019.84 1020.04 1020.16 1019.96
1013.72 1013.68 1013.44 1013.44 1013.68 1013.76 1014.24 1014.44 1014.56 1014.40 1014.12 1013.88 1013.76 1013.84 1013.84 1013.80 1013.96 1014.12 1014.40 1014.80 1014.80 1014.84 1014.96 1015.64 1016.00 1015.84 1015.88 1015.88 1015.76 1015.84 1015.96 1015.96 1016.04 1016.20 1016.60 1016.84 1017.04 1017.32 1017.36 1017.76 1017.40 1017.60 1017.92 1018.16 1018.44 1018.64 1018.84 1019.32 1019.72 1019.88 1019.92 1019.52 1019.60 1019.48 1019.64 1019.56 1019.72 1019.80 1019.60 1019.60 1019.60 1019.64 1019.84
1013.68 1013.56 1013.56 1013.60 1013.72 1014.04 1014.68 1014.92 1014.88 1014.28 1013.80 1013.52 1013.40 1013.36 1013.44 1013.40 1013.52 1013.72 1013.96 1014.20 1014.52 1014.76 1014.84 1015.28 1015.28 1015.24 1015.40 1015.28 1015.36 1015.64 1015.80 1016.16 1016.24 1016.44 1016.68 1016.72 1016.68 1016.96 1017.24 1017.04 1017.40 1017.64 1017.88 1018.28 1018.76 1019.20 1019.04 1018.52 1019.52 1019.64 1019.56 1020.04 1020.36 1020.04 1019.68 1020.00 1019.84 1019.56 1019.36 1019.48 1019.64 1019.64 1019.80
1013.68 1013.64 1013.80 1014.00 1013.96 1014.64 1014.92 1014.80 1014.28 1013.52 1013.12 1013.12 1012.96 1013.00 1013.12 1013.28 1013.44 1013.56 1013.80 1014.08 1014.28 1014.40 1014.76 1014.92 1015.08 1015.24 1015.28 1015.32 1015.52 1015.68 1015.88 1016.12 1016.32 1016.40 1016.52 1016.72 1016.72 1016.72 1016.60 1016.56 1016.88 1017.32 1017.76 1018.00 1018.40 1018.44 1019.08 1018.96 1018.88 1018.96 1019.36 1019.20 1019.68 1020.16 1019.76 1019.64 1019.48 1019.28 1019.24 1019.28 1019.44 1019.56 1019.68
1013.52 1013.60 1013.64 1014.00 1014.28 1014.48 1014.60 1014.36 1013.88 1013.52 1013.04 1012.76 1012.76 1012.80 1013.12 1013.28 1013.48 1013.68 1013.84 1014.04 1014.28 1014.44 1014.60 1014.68 1014.76 1014.92 1015.12 1015.32 1015.52 1015.68 1015.88 1016.04 1016.20 1016.32 1016.48 1016.88 1017.00 1017.12 1016.76 1016.68 1016.68 1016.88 1017.32 1017.36 1017.44 1017.64 1018.08 1018.32 1018.24 1018.64 1018.96 1018.52 1019.08 1019.16 1019.44 1019.60 1019.20 1019.04 1019.20 1019.24 1019.24 1019.44 1019.60
1013.40 1013.36 1013.52 1013.88 1014.44 1014.72 1014.36 1013.96 1013.64 1013.36 1012.92 1012.72 1012.48 1012.68 1012.84 1013.16 1013.44 1013.60 1013.76 1013.92 1014.16 1014.16 1014.24 1014.40 1014.52 1014.68 1015.00 1015.40 1015.68 1015.88 1016.00 1016.20 1016.32 1016.56 1016.92 1016.84 1016.96 1017.36 1017.08 1016.72 1016.84 1017.24 1017.44 1016.88 1016.96 1017.32 1017.20 1017.16 1017.88 1018.36 1018.28 1018.08 1019.20 1019.56 1019.36 1019.24 1019.52 1019.08 1018.92 1019.04 1018.96 1019.12 1019.56
1013.32 1013.32 1013.84 1014.16 1014.64 1014.40 1014.04 1013.72 1013.40 1013.00 1012.72 1012.52 1012.36 1012.48 1012.56 1012.88 1013.16 1013.28 1013.44 1013.96 1013.96 1013.92 1014.00 1014.00 1014.08 1014.40 1014.88 1015.48 1015.80 1016.12 1016.32 1016.32 1016.52 1016.68 1016.60 1016.84 1017.28 1016.92 1016.52 1016.84 1016.88 1016.84 1016.72 1016.64 1016.84 1017.00 1017.04 1017.64 1018.08 1018.36 1018.68 1018.76 1018.72 1019.16 1019.12 1019.08 1018.92 1019.40 1019.32 1018.80 1018.72 1019.00 1019.32
1013.28 1013.28 1013.32 1013.60 1013.92 1013.96 1013.48 1013.04 1012.88 1012.64 1012.48 1012.12 1012.04 1012.08 1012.28 1012.68 1012.96 1013.08 1013.32 1013.68 1013.84 1013.88 1013.92 1013.92 1013.88 1014.16 1014.84 1015.48 1015.56 1015.28 1015.48 1016.44 1016.56 1016.68 1016.84 1016.76 1016.64 1016.60 1016.68 1016.80 1017.00 1016.96 1016.60 1016.52 1016.68 1016.80 1016.52 1017.00 1017.16 1017.92 1018.28 1019.24 1019.92 1019.00 1019.48 1018.84 1018.84 1019.00 1019.20 1018.76 1018.60 1019.04 1019.36
1013.24 1013.16 1013.16 1013.20 1013.16 1013.04 1013.00 1012.92 1012.72 1012.72 1012.36 1012.12 1011.92 1012.00 1012.12 1012.40 1012.72 1012.92 1013.04 1013.60 1013.64 1013.52 1013.64 1013.68 1013.76 1013.96 1014.44 1015.20 1015.24 1014.96 1015.16 1015.28 1015.88 1016.36 1016.56 1016.68 1016.64 1016.64 1016.96 1016.96 1017.00 1017.08 1016.56 1016.48 1016.44 1016.60 1016.56 1016.56 1016.80 1017.28 1017.76 1018.08 1018.80 1019.56 1019.16 1019.44 1019.12 1019.60 1018.64 1019.00 1018.80 1018.84 1019.44
1013.40 1013.36 1013.20 1013.00 1012.88 1012.72 1012.72 1012.80 1012.88 1012.48 1012.40 1012.40 1012.48 1012.32 1012.20 1012.36 1012.48 1012.64 1012.80 1012.96 1013.20 1013.24 1013.40 1013.52 1013.56 1013.72 1014.04 1014.56 1014.84 1014.96 1015.00 1015.08 1015.32 1015.68 1015.96 1016.28 1016.56 1016.80 1017.00 1016.96 1016.84 1016.76 1016.64 1016.40 1016.40 1016.68 1016.72 1016.76 1016.64 1016.48 1016.92 1017.16 1017.48 1018.40 1019.08 1019.52 1019.56 1019.60 1019.04 1018.64 1019.16 1019.12 1019.00
1013.28 1013.08 1012.92 1012.80 1012.64 1012.60 1012.80 1012.92 1012.64 1012.52 1012.32 1012.20 1012.48 1012.44 1012.08 1012.32 1012.40 1012.48 1012.60 1012.68 1012.92 1012.96 1013.08 1013.16 1013.28 1013.40 1013.64 1014.00 1014.40 1014.72 1014.80 1015.04 1015.40 1015.56 1015.88 1016.12 1016.44 1016.60 1016.60 1016.76 1016.96 1016.96 1016.64 1016.52 1016.72 1016.84 1017.08 1016.84 1016.72 1016.72 1017.04 1017.20 1016.92 1017.64 1018.08 1018.80 1019.40 1018.84 1018.96 1018.44 1018.48 1019.04 1018.92
1012.88 1012.76 1012.64 1012.64 1012.72 1012.84 1012.84 1012.92 1012.76 1012.64 1012.68 1012.32 1012.20 1012.24 1012.32 1012.16 1012.24 1012.32 1012.40 1012.48 1012.72 1012.84 1012.80 1013.04 1013.28 1013.48 1013.52 1013.80 1014.12 1014.48 1014.68 1014.96 1015.32 1015.64 1015.76 1016.08 1016.20 1016.40 1016.84 1017.16 1017.00 1016.96 1016.40 1016.64 1016.72 1016.68 1016.88 1016.60 1016.88 1016.68 1016.68 1016.80 1016.92 1017.24 1017.92 1018.44 1019.72 1019.08 1018.24 1018.96 1018.52 1018.28 1018.52
1012.76 1012.56 1012.48 1012.56 1012.80 1012.88 1012.88 1013.00 1013.04 1013.08 1013.04 1012.48 1012.44 1012.44 1012.00 1011.96 1012.08 1012.36 1012.32 1012.88 1012.80 1012.72 1012.72 1012.84 1013.04 1013.36 1013.44 1013.60 1013.80 1014.16 1014.44 1014.72 1015.08 1015.48 1015.64 1015.80 1015.96 1016.16 1016.48 1016.76 1016.48 1016.16 1016.16 1016.48 1016.76 1016.80 1016.80 1016.52 1016.52 1017.00 1017.08 1016.88 1017.12 1017.32 1017.68 1018.28 1018.88 1019.28 1018.80 1018.68 1018.88 1018.48 1018.32
1012.84 1012.60 1012.60 1012.64 1012.88 1012.88 1012.96 1012.96 1012.80 1012.72 1012.80 1012.44 1011.92 1011.84 1011.56 1011.60 1011.64 1011.80 1011.80 1012.56 1012.64 1012.64 1012.64 1012.72 1012.84 1013.04 1013.28 1013.40 1013.52 1013.88 1014.24 1014.56 1014.84 1015.16 1015.64 1015.76 1015.76 1015.92 1016.16 1016.60 1016.24 1015.88 1015.92 1016.36 1016.48 1016.48 1016.52 1016.52 1016.80 1016.84 1016.84 1017.36 1017.60 1017.40 1017.76 1018.20 1018.80 1019.12 1018.80 1018.20 1018.44 1018.40 1018.08
1012.88 1012.76 1012.76 1012.72 1012.88 1012.88 1012.88 1012.88 1012.88 1012.56 1012.60 1012.60 1011.88 1011.40 1011.32 1011.20 1011.32 1011.44 1011.64 1011.76 1012.16 1012.16 1012.28 1012.36 1012.72 1012.72 1012.96 1013.32 1013.36 1013.52 1013.92 1014.40 1014.72 1015.12 1015.56 1015.68 1015.84 1016.12 1016.64 1016.28 1016.04 1015.68 1015.68 1016.00 1016.04 1016.16 1016.08 1016.12 1016.04 1016.60 1016.76 1016.84 1016.88 1016.68 1017.52 1017.84 1018.60 1018.80 1019.12 1018.60 1018.48 1018.08 1018.52
1013.16 1012.92 1012.84 1012.84 1012.80 1012.72 1012.60 1012.48 1012.52 1012.64 1012.60 1012.68 1012.20 1011.52 1011.24 1011.16 1011.16 1011.32 1011.64 1011.76 1012.00 1012.04 1012.00 1012.60 1012.56 1012.72 1012.88 1013.12 1013.28 1013.56 1013.88 1014.28 1014.64 1015.00 1015.32 1015.48 1015.44 1015.76 1016.12 1015.88 1015.64 1015.44 1015.60 1015.92 1016.00 1015.84 1015.96 1016.24 1016.00 1016.32 1016.56 1016.56 1016.84 1016.84 1017.00 1017.36 1017.84 1018.56 1018.64 1018.72 1018.28 1018.40 1018.60
1013.32 1013.16 1012.96 1012.84 1012.80 1012.68 1012.52 1012.48 1012.44 1012.80 1012.72 1012.64 1012.68 1011.84 1011.20 1011.44 1011.24 1011.56 1011.56 1011.44 1011.36 1011.60 1011.60 1012.28 1012.72 1012.72 1012.80 1013.04 1013.28 1013.72 1014.24 1014.56 1014.84 1014.92 1015.00 1015.20 1015.44 1015.56 1015.60 1015.76 1015.60 1015.40 1015.72 1015.92 1015.96 1015.88 1016.24 1016.44 1016.36 1016.36 1016.56 1016.64 1016.72 1016.64 1016.92 1017.48 1017.60 1017.84 1018.12 1018.60 1018.20 1018.04 1018.60
1013.44 1013.16 1012.96 1012.76 1012.64 1012.48 1012.40 1012.36 1012.36 1012.44 1012.44 1012.52 1012.00 1011.72 1011.72 1011.20 1011.68 1011.92 1012.28 1012.20 1011.88 1012.08 1012.16 1012.36 1012.60 1012.80 1013.00 1013.32 1013.40 1013.88 1014.48 1014.88 1015.00 1014.88 1014.88 1015.12 1015.24 1015.36 1015.36 1015.64 1015.52 1015.28 1015.56 1015.76 1015.96 1016.00 1016.00 1016.36 1016.48 1016.32 1016.80 1016.68 1016.52 1016.68 1016.92 1017.28 1017.08 1017.32 1017.76 1018.12 1018.12 1017.76 1018.32
1013.56 1013.24 1013.04 1012.80 1012.60 1012.48 1012.36 1012.32 1012.24 1012.20 1012.20 1012.04 1011.84 1012.08 1012.36 1012.32 1012.24 1012.52 1012.56 1012.48 1012.44 1012.32 1012.80 1012.96 1012.76 1012.92 1013.52 1013.84 1014.00 1013.92 1014.04 1014.44 1014.72 1014.44 1014.60 1014.68 1014.80 1015.00 1015.04 1015.08 1015.48 1015.24 1015.24 1015.52 1015.84 1016.12 1015.92 1016.08 1016.72 1016.20 1016.44 1016.64 1016.76 1016.92 1017.52 1016.88 1016.92 1017.12 1017.52 1017.76 1017.72 1018.12 1018.32
1013.76 1013.44 1013.16 1012.92 1012.64 1012.40 1012.20 1012.28 1012.40 1012.20 1012.00 1012.20 1012.24 1012.28 1012.28 1012.48 1012.48 1012.56 1012.60 1012.64 1012.96 1012.76 1012.44 1012.12 1012.08 1012.36 1012.48 1012.80 1013.32 1014.04 1014.44 1014.20 1014.00 1014.16 1014.40 1014.56 1014.56 1014.64 1015.16 1015.16 1015.48 1015.16 1015.08 1015.16 1015.64 1015.80 1015.84 1016.12 1016.60 1016.64 1017.00 1016.60 1016.64 1016.84 1016.88 1017.12 1017.12 1017.12 1017.36 1017.60 1017.68 1018.04 1018.28
1013.68 1013.36 1013.16 1012.96 1012.68 1012.40 1012.24 1012.12 1012.08 1012.24 1012.32 1012.52 1012.76 1012.56 1012.40 1012.40 1012.44 1012.48 1012.64 1012.76 1012.88 1012.76 1012.48 1012.56 1012.52 1012.40 1012.40 1012.52 1012.72 1012.92 1013.56 1013.64 1013.76 1013.96 1014.28 1014.44 1014.60 1014.80 1015.00 1014.76 1014.92 1015.56 1015.64 1015.44 1015.36 1015.72 1015.76 1016.88 1017.28 1017.24 1017.36 1017.04 1017.04 1017.04 1017.20 1016.88 1017.08 1017.24 1017.40 1017.52 1017.84 1018.16 1018.20
1013.68 1013.36 1013.16 1012.96 1012.72 1012.52 1012.36 1012.20 1012.12 1012.08 1012.20 1012.28 1012.48 1012.52 1012.28 1012.20 1012.24 1012.32 1012.44 1012.64 1012.84 1012.76 1012.72 1012.76 1012.80 1012.72 1012.68 1012.76 1012.92 1013.04 1013.08 1013.36 1013.64 1013.96 1014.28 1014.48 1014.60 1015.16 1015.84 1015.20 1015.16 1015.24 1015.36 1015.52 1015.76 1015.92 1016.12 1016.36 1016.64 1017.16 1017.52 1018.16 1018.36 1017.60 1017.28 1017.00 1017.16 1017.32 1017.40 1017.56 1017.80 1017.84 1018.24
1013.84 1013.52 1013.20 1013.12 1012.88 1012.68 1012.44 1012.36 1012.20 1012.12 1012.20 1012.32 1012.40 1012.32 1012.12 1012.08 1012.20 1012.40 1012.68 1012.68 1012.52 1012.44 1012.68 1012.76 1012.88 1012.96 1012.96 1013.00 1013.16 1013.20 1013.32 1013.52 1013.72 1013.92 1014.36 1014.60 1014.84 1015.64 1015.20 1014.84 1015.32 1015.48 1015.68 1015.80 1016.04 1016.24 1016.32 1016.52 1016.72 1016.72 1017.08 1017.48 1017.56 1017.32 1017.32 1017.48 1017.28 1017.40 1017.56 1017.72 1017.76 1018.08 1018.36
1014.08 1013.76 1013.44 1013.24 1013.04 1012.84 1012.72 1012.64 1012.60 1012.36 1012.28 1012.40 1012.28 1012.08 1012.12 1012.16 1012.16 1012.44 1012.60 1012.68 1012.84 1012.68 1012.60 1012.80 1013.16 1013.36 1013.36 1013.36 1013.28 1013.40 1013.52 1013.76 1014.04 1014.24 1014.60 1014.88 1015.00 1015.28 1014.72 1014.80 1015.28 1015.56 1015.72 1016.00 1016.36 1016.48 1016.60 1016.92 1017.16 1017.16 1017.40 1017.44 1017.08 1017.08 1017.68 1017.88 1017.48 1017.64 1017.96 1017.92 1017.80 1017.96 1018.16
1014.36 1014.16 1013.84 1013.64 1013.40 1013.28 1013.24 1013.16 1013.12 1012.96 1012.68 1012.52 1012.44 1012.28 1012.32 1012.32 1012.44 1012.48 1012.76 1012.80 1012.88 1013.00 1013.08 1012.80 1013.28 1013.56 1013.68 1013.60 1013.44 1013.48 1013.64 1013.88 1014.08 1014.44 1015.08 1015.24 1014.80 1014.36 1014.52 1014.48 1014.72 1014.96 1015.36 1015.68 1016.12 1016.52 1017.00 1017.28 1017.40 1017.40 1017.52 1017.52 1017.64 1017.80 1018.00 1017.84 1017.76 1017.64 1017.76 1017.72 1018.24 1018.44 1018.48
1014.76 1014.60 1014.44 1014.16 1013.96 1013.80 1013.72 1013.68 1013.64 1013.52 1013.48 1013.24 1012.84 1012.76 1012.60 1012.56 1012.72 1012.88 1012.96 1012.96 1013.08 1013.44 1013.76 1013.96 1013.60 1013.60 1013.96 1013.92 1013.80 1013.44 1013.64 1013.72 1014.16 1015.00 1014.48 1014.32 1014.00 1013.92 1014.24 1014.44 1014.96 1015.00 1015.40 1015.72 1015.80 1016.12 1016.72 1017.20 1017.40 1017.36 1017.36 1017.48 1017.72 1017.76 1017.72 1017.84 1017.84 1017.68 1017.60 1018.24 1018.32 1018.72 1018.88
1015.12 1015.00 1014.80 1014.60 1014.44 1014.44 1014.36 1014.44 1014.32 1014.28 1014.12 1013.84 1013.60 1013.52 1013.48 1013.44 1013.36 1013.40 1013.36 1013.48 1013.92 1014.20 1014.56 1014.68 1014.16 1013.84 1014.12 1014.12 1014.20 1013.64 1013.36 1013.92 1014.20 1014.12 1013.96 1013.60 1013.36 1014.00 1014.52 1014.52 1014.84 1015.32 1015.48 1015.48 1015.68 1016.04 1016.40 1016.72 1016.88 1017.00 1017.00 1017.16 1017.56 1017.88 1018.04 1018.08 1017.84 1017.56 1017.32 1017.36 1018.04 1019.08 1019.08
1015.72 1015.48 1015.24 1015.12 1015.04 1014.92 1014.96 1014.88 1014.84 1014.80 1014.68 1014.56 1014.48 1014.40 1014.32 1014.08 1014.04 1014.12 1014.24 1014.20 1014.48 1014.64 1014.96 1015.00 1014.72 1014.52 1014.60 1014.48 1014.20 1013.60 1013.36 1013.36 1013.32 1013.60 1013.72 1013.48 1014.00 1013.96 1014.64 1014.88 1014.76 1015.00 1015.20 1015.44 1015.68 1015.88 1016.16 1016.36 1016.52 1016.80 1017.28 1017.80 1018.20 1018.72 1019.00 1018.96 1018.80 1018.24 1017.88 1018.04 1018.36 1018.84 1019.32
1016.12 1015.88 1015.68 1015.60 1015.52 1015.44 1015.40 1015.36 1015.40 1015.32 1015.20 1015.20 1015.08 1014.92 1014.96 1014.92 1014.80 1014.76 1014.80 1014.92 1015.04 1015.20 1015.36 1015.36 1015.08 1015.08 1015.08 1014.88 1014.40 1013.76 1013.40 1013.48 1013.80 1014.04 1014.04 1014.36 1015.24 1014.92 1014.88 1015.28 1015.52 1015.24 1015.16 1015.64 1016.28 1016.20 1015.96 1016.08 1016.52 1017.08 1017.56 1017.96 1018.44 1019.00 1019.76 1020.40 1020.12 1019.36 1019.08 1019.08 1019.36 1019.76 1020.20
1016.60 1016.28 1016.12 1016.04 1016.12 1016.12 1016.04 1015.92 1015.80 1015.72 1015.72 1015.84 1015.84 1015.72 1015.72 1015.56 1015.52 1015.48 1015.32 1015.32 1015.44 1015.56 1015.76 1015.96 1015.52 1015.56 1015.28 1015.08 1014.40 1013.84 1013.88 1013.96 1013.68 1013.56 1014.28 1014.92 1015.24 1015.76 1015.72 1015.16 1015.04 1015.44 1015.76 1016.48 1016.92 1016.60 1016.60 1016.48 1016.72 1017.16 1017.48 1017.92 1018.40 1018.84 1019.56 1020.04 1020.16 1019.96 1019.88 1020.00 1020.24 1020.40 1020.48
1017.08 1016.88 1016.68 1016.60 1016.56 1016.60 1016.56 1016.40 1016.28 1016.16 1016.24 1016.40 1016.60 1016.56 1016.48 1016.36 1016.24 1016.08 1016.00 1016.16 1016.16 1016.20 1016.32 1016.12 1016.08 1015.96 1015.40 1015.16 1014.68 1014.48 1014.68 1015.36 1014.88 1014.48 1014.88 1015.16 1015.68 1016.28 1016.76 1016.64 1016.00 1015.88 1016.44 1017.04 1017.12 1016.96 1016.80 1016.84 1017.20 1017.36 1017.64 1018.16 1018.60 1019.08 1019.68 1019.92 1020.08 1020.48 1020.48 1020.40 1020.44 1020.48 1020.52
1017.56 1017.44 1017.44 1017.36 1017.12 1017.00 1017.08 1017.00 1016.72 1016.60 1016.64 1016.80 1017.04 1017.04 1016.96 1016.84 1016.88 1017.04 1017.32 1017.32 1017.16 1016.80 1016.68 1016.88 1016.72 1016.00 1016.00 1015.68 1014.84 1014.92 1015.24 1015.64 1015.52 1015.44 1015.40 1015.84 1016.20 1016.72 1017.16 1017.68 1018.08 1017.72 1017.56 1017.60 1017.52 1017.44 1017.20 1017.24 1017.76 1017.56 1017.76 1018.00 1018.60 1019.12 1019.56 1019.80 1020.04 1020.12 1020.32 1020.44 1020.64 1020.64 1020.72
1018.08 1017.96 1017.92 1018.00 1017.96 1017.76 1017.56 1017.52 1017.40 1017.24 1017.32 1017.28 1017.40 1017.44 1017.44 1017.44 1017.44 1017.68 1017.68 1017.64 1017.84 1017.84 1017.60 1017.48 1017.36 1017.04 1016.68 1016.12 1015.40 1015.32 1015.80 1016.52 1016.32 1016.16 1016.20 1016.64 1017.08 1017.64 1017.92 1018.32 1018.84 1018.92 1018.12 1018.20 1018.28 1018.24 1018.12 1017.92 1018.04 1017.84 1017.72 1018.16 1018.72 1019.36 1019.44 1019.56 1019.80 1019.80 1019.72 1019.92 1020.24 1020.32 1020.52
1018.76 1018.56 1018.32 1018.28 1018.40 1018.40 1018.28 1018.24 1018.12 1017.84 1017.76 1017.76 1017.72 1017.76 1017.72 1017.68 1017.76 1018.04 1018.20 1018.36 1018.44 1018.64 1018.68 1018.56 1018.56 1018.28 1017.64 1016.92 1016.48 1016.20 1016.56 1017.12 1017.28 1017.48 1017.92 1018.16 1018.52 1019.08 1019.44 1019.56 1019.80 1019.92 1018.96 1019.00 1019.16 1019.20 1019.16 1019.04 1018.84 1019.00 1019.20 1019.48 1019.76 1019.48 1019.28 1019.64 1020.04 1020.08 1020.36 1020.60 1020.80 1020.80 1021.04
1019.36 1019.32 1019.16 1018.96 1018.92 1018.96 1018.92 1018.76 1018.68 1018.64 1018.52 1018.24 1018.12 1018.08 1018.04 1018.08 1018.28 1018.52 1018.72 1018.88 1019.08 1019.36 1019.56 1019.72 1019.40 1019.20 1019.00 1018.32 1017.88 1017.60 1017.56 1018.00 1017.88 1018.24 1019.20 1019.48 1020.24 1020.68 1020.64 1020.80 1020.84 1020.72 1020.12 1019.84 1019.88 1019.88 1019.80 1019.84 1019.96 1020.04 1020.44 1020.04 1019.88 1019.80 1019.76 1019.92 1020.20 1020.40 1020.64 1020.84 1021.00 1021.20 1021.32
1020.12 1020.00 1020.00 1019.88 1019.80 1019.76 1019.60 1019.44 1019.28 1019.20 1019.16 1019.16 1019.12 1019.04 1019.00 1019.04 1019.00 1019.20 1019.40 1019.64 1019.80 1019.92 1020.16 1020.36 1020.36 1020.04 1019.68 1019.32 1019.04 1018.92 1018.96 1019.00 1018.92 1019.00 1019.56 1020.28 1020.96 1021.64 1021.56 1021.60 1021.64 1021.08 1020.80 1020.68 1020.60 1020.64 1020.68 1020.64 1020.72 1021.04 1020.88 1020.76 1020.64 1020.52 1020.52 1020.72 1020.88 1021.08 1021.20 1021.32 1021.52 1021.72 1021.76
1020.76 1020.72 1020.68 1020.56 1020.48 1020.48 1020.44 1020.32 1020.04 1019.80 1019.72 1019.76 1019.88 1019.92 1020.04 1020.08 1020.08 1020.16 1020.28 1020.40 1020.36 1020.36 1020.52 1020.72 1021.04 1021.00 1020.84 1020.56 1020.16 1020.04 1020.12 1020.24 1020.08 1020.28 1020.56 1021.36 1021.92 1022.08 1022.12 1022.24 1022.20 1021.68 1021.56 1021.48 1021.48 1021.56 1021.60 1021.76 1021.80 1021.68 1021.56 1021.48 1021.44 1021.36 1021.28 1021.28 1021.32 1021.44 1021.56 1021.72 1021.84 1021.88 1021.80
Wind_Speed
6 6 4 4 4 4 3 3 3 3 4 5 6 7 8 8 8 7 7 6 6 7 6 7 7 7 4 6 8 8 8 7 9 7 8 9 10 8 7 8 8 3 4 5 4 4 4 7 7 5 6 7 6 6 5 5 5 6 6 6 6 7 5
7 6 5 5 4 3 2 3 5 5 5 6 7 8 9 10 8 8 5 6 6 7 6 3 7 7 8 10 8 7 7 6 7 7 5 6 7 8 11 11 7 5 5 3 2 4 4 6 6 7 6 6 5 5 5 5 4 5 5 5 4 4 4
6 6 6 6 4 2 1 3 6 7 7 7 8 10 10 11 10 9 8 7 5 5 5 7 7 8 7 8 6 8 7 6 4 4 3 4 7 4 7 7 6 6 4 6 7 6 6 4 6 8 8 9 8 6 6 7 9 8 5 5 5 5 4
9 8 7 6 4 2 2 4 7 9 8 8 9 10 10 10 10 9 6 5 5 5 6 6 7 8 8 5 5 6 6 8 5 6 6 4 4 3 5 6 6 6 6 7 8 7 7 4 6 8 8 9 8 8 6 6 5 7 6 5 5 5 4
10 9 8 7 5 4 4 8 8 9 9 9 10 10 8 9 7 7 6 7 7 7 6 6 6 8 6 5 4 3 4 6 6 4 5 7 2 2 4 4 5 4 4 5 4 4 6 8 7 8 9 8 8 6 7 8 8 7 7 6 6 5 4
10 10 9 5 4 5 7 9 9 10 10 9 10 10 8 8 8 8 8 6 7 7 7 6 6 6 4 3 4 4 6 6 4 4 3 3 4 5 6 4 4 6 8 5 3 5 5 2 6 7 7 7 7 7 8 9 7 7 6 7 6 6 6
9 9 8 4 6 7 10 10 11 10 10 10 9 9 7 8 9 9 7 5 6 6 7 7 7 6 4 5 8 9 11 6 4 7 5 8 9 10 4 4 4 5 5 5 4 5 3 4 7 6 7 6 7 8 7 7 7 7 6 6 6 6 6
9 8 6 4 7 10 11 12 10 10 11 11 10 8 8 9 9 8 7 4 5 6 6 7 8 7 8 8 9 9 7 6 7 4 6 5 5 5 4 3 3 5 7 7 6 5 6 6 7 8 8 10 5 6 8 7 8 8 8 6 7 7 6
8 8 7 7 7 9 11 11 11 10 11 9 9 8 8 7 9 9 8 8 10 9 8 9 8 7 8 7 8 5 6 7 7 11 7 7 5 5 4 4 4 8 6 7 6 5 5 5 4 9 9 10 9 9 8 8 7 6 8 8 8 10 9
9 10 10 10 10 10 9 9 10 11 10 9 7 9 7 8 9 10 9 9 9 9 8 9 9 8 7 8 5 4 5 5 5 6 6 5 7 6 4 8 5 4 6 6 5 5 4 4 6 5 7 6 7 8 9 8 7 9 9 8 8 9 9
10 10 10 11 10 10 8 9 11 10 10 9 6 9 8 8 9 10 9 9 9 9 10 10 9 7 8 6 7 6 6 5 6 5 5 6 5 4 3 1 5 6 7 5 4 3 4 7 5 5 5 7 7 7 7 8 7 6 8 8 7 9 9
9 9 9 10 10 10 11 10 11 10 11 10 8 8 10 9 8 10 10 9 9 11 11 9 9 7 9 8 8 7 7 7 7 7 7 7 5 5 6 7 9 10 5 3 4 3 6 5 6 5 3 4 4 3 5 4 6 5 5 7 7 8 8
9 10 10 9 9 10 7 8 11 10 12 11 7 11 10 10 11 11 10 5 8 9 11 11 10 8 7 7 7 8 8 9 9 9 8 7 5 6 9 12 12 8 5 5 5 6 7 7 5 5 5 4 4 5 6 6 7 7 6 7 6 8 9
10 9 9 8 8 8 7 8 10 9 11 13 12 11 11 11 10 9 10 11 11 10 12 11 10 7 9 8 8 7 8 9 10 8 7 7 6 7 7 10 11 10 8 7 6 6 6 8 7 4 6 5 6 8 8 5 6 7 6 7 7 8 8
10 9 10 7 5 6 6 7 10 11 8 12 12 11 12 10 10 9 6 6 9 13 12 12 9 7 5 7 9 8 9 9 10 8 7 8 9 7 9 11 10 10 9 8 9 9 8 5 7 7 6 7 4 5 9 7 8 6 8 7 7 7 9
10 11 10 8 8 7 7 8 7 9 9 9 12 12 11 11 10 11 9 12 12 11 12 9 10 9 8 8 9 9 8 8 6 6 6 7 10 10 11 8 10 9 7 8 7 7 5 7 6 8 8 6 6 6 9 7 7 7 9 8 8 9 8
10 10 10 8 8 7 6 6 5 6 12 6 11 13 10 9 10 8 10 7 8 10 10 10 8 9 10 8 9 10 6 3 4 7 8 9 8 6 8 9 8 9 8 9 8 6 5 3 6 5 6 6 8 6 6 5 7 8 9 10 9 8 8
10 10 10 9 9 9 7 6 6 8 8 8 11 8 11 6 5 6 6 10 7 7 6 6 7 7 6 6 8 4 4 9 10 8 9 10 7 9 11 10 10 9 8 8 9 6 6 8 7 7 5 6 7 6 4 8 8 9 9 9 7 8 9
11 11 10 10 10 9 7 6 7 7 9 10 8 7 7 7 5 7 5 3 5 3 5 9 10 10 9 8 6 5 6 7 10 11 9 7 7 8 8 9 8 9 9 9 5 6 7 9 7 8 9 9 8 8 8 6 6 8 8 9 8 9 7
10 10 10 9 9 8 8 6 6 8 6 7 9 5 6 6 3 4 4 2 4 6 8 7 7 7 8 10 11 10 8 7 9 7 5 6 5 5 4 6 10 10 9 7 8 7 6 4 4 5 5 4 5 6 6 7 7 8 9 8 7 7 7
10 9 9 9 9 9 9 8 6 5 6 6 8 5 3 3 4 3 2 3 2 3 8 3 3 6 6 6 6 8 9 8 6 5 5 4 2 2 4 6 3 4 4 6 5 4 4 8 3 2 4 3 2 5 6 6 7 7 7 8 7 7 6
9 9 8 8 8 9 9 8 7 5 5 5 4 3 5 4 5 4 2 4 7 7 5 5 6 7 6 6 5 5 6 6 5 5 5 4 2 4 8 4 7 6 4 9 12 9 8 8 7 5 4 2 3 5 3 4 7 8 7 7 7 7 7
9 9 9 8 8 8 8 8 8 7 6 5 4 6 5 3 2 3 4 4 5 4 4 5 4 4 4 5 4 3 2 3 4 4 5 2 3 8 6 7 7 12 11 12 12 11 12 12 8 5 6 6 8 5 4 5 7 6 7 7 7 7 7
9 10 10 9 9 10 10 9 9 8 6 5 5 4 3 2 2 2 2 2 5 5 3 3 8 4 3 5 4 3 2 3 3 2 3 6 11 9 9 9 9 11 12 12 10 13 13 13 11 12 13 11 8 4 3 6 5 7 4 7 6 8 7
10 10 10 11 10 9 9 9 9 10 9 7 4 4 2 2 2 1 1 2 2 2 3 3 6 5 3 5 4 4 3 2 3 4 7 9 8 9 7 8 8 7 8 10 10 10 10 11 11 12 13 13 13 13 9 5 1 1 4 5 3 4 1
10 10 10 10 10 10 9 10 10 10 9 8 8 9 5 1 0 3 5 6 6 6 4 12 8 8 4 4 6 6 3 2 2 7 10 12 8 6 7 7 6 7 8 11 10 9 9 8 10 13 14 14 14 14 14 13 8 1 4 4 6 4 2
10 10 10 10 10 10 10 10 10 9 8 8 8 8 8 9 8 6 6 6 7 7 7 11 10 11 10 8 2 2 5 6 9 9 6 6 6 9 7 5 8 7 7 8 8 10 9 9 8 8 8 7 8 10 12 13 13 12 9 5 7 7 8
10 10 10 10 10 10 11 11 11 10 9 10 9 9 10 9 8 8 8 8 6 7 8 13 13 13 11 13 11 4 3 4 4 1 2 5 2 5 8 5 5 8 9 9 7 9 10 9 9 8 10 10 10 9 9 10 9 7 8 8 9 9 8
10 10 10 10 10 11 11 11 10 9 9 9 9 7 7 8 10 8 7 7 8 9 11 16 15 14 12 12 11 6 3 3 4 4 5 8 8 6 2 6 6 9 9 9 9 5 6 9 9 10 11 11 10 10 10 7 9 13 12 10 10 10 8
11 11 11 11 11 11 10 11 10 8 8 9 10 10 9 9 9 9 10 9 7 8 9 15 18 15 12 12 8 5 4 5 1 5 9 10 9 9 9 3 6 7 9 8 9 11 12 6 8 10 10 10 9 10 9 8 12 15 16 16 15 14 13
11 11 11 11 11 10 10 10 10 9 9 9 10 9 9 7 9 12 13 13 10 9 8 15 19 17 17 15 9 4 7 1 5 8 8 10 10 10 14 21 12 9 10 9 13 14 12 7 7 7 9 10 10 10 8 7 7 8 11 12 13 13 13
11 10 11 11 10 10 10 10 9 9 8 8 9 10 10 12 10 11 10 10 15 12 11 13 18 19 19 17 9 7 7 3 4 5 7 8 10 9 11 14 19 14 11 13 18 16 14 11 2 6 7 8 9 9 8 7 6 7 6 6 6 6 7
11 10 10 10 10 10 9 9 10 9 9 8 8 9 10 12 14 12 12 11 10 12 11 11 17 20 18 18 16 7 7 6 4 5 8 8 8 10 10 10 13 16 19 19 19 19 17 14 3 3 5 7 8 9 7 6 4 1 5 5 6 6 6
12 11 10 10 10 10 10 10 10 9 8 9 9 10 12 13 14 14 14 11 12 12 13 13 14 21 20 20 19 13 8 7 8 9 9 11 10 9 9 9 8 13 19 20 19 20 20 19 16 11 11 9 7 5 5 6 6 9 9 6 4 3 4
11 11 11 11 10 10 11 11 10 10 9 9 10 11 11 10 11 12 14 14 13 12 15 19 11 18 19 20 21 19 11 9 8 11 11 11 11 9 10 9 8 12 19 19 19 19 20 19 19 11 11 14 17 16 8 7 4 4 5 4 4 3 3
12 10 12 13 12 12 11 11 12 11 11 11 12 13 13 11 11 11 11 11 9 11 12 12 20 14 19 20 21 21 20 14 16 12 11 12 10 7 7 8 8 17 20 20 20 20 19 18 15 11 17 17 16 15 11 6 5 4 3 4 4 3 3
13 12 13 12 13 13 12 11 12 11 11 12 12 13 12 11 11 11 10 10 11 12 11 10 16 20 17 20 20 21 21 21 18 13 12 10 8 7 7 8 10 18 18 19 19 19 18 16 12 15 14 15 13 8 5 4 5 4 3 3 3 2 3
Wind_Direction
252 263 251 254 247 245 252 258 269 248 243 246 243 236 230 228 221 222 224 225 232 235 229 214 221 227 275 219 197 206 209 213 208 208 193 194 199 198 203 204 200 179 137 143 244 201 187 175 185 171 194 165 180 191 168 147 159 202 184 164 173 180 188
252 251 246 243 240 231 252 317 288 277 257 248 242 240 235 230 224 218 209 236 215 228 222 231 229 218 223 233 193 199 203 207 208 210 205 202 207 207 180 202 186 173 172 180 198 230 225 180 174 180 175 172 170 176 152 172 175 215 189 154 185 153 133
251 247 249 244 235 167 91 271 273 261 248 236 231 235 235 231 224 219 206 195 189 213 224 212 226 220 220 230 191 196 204 212 208 211 207 223 230 189 215 184 177 187 179 201 183 193 254 233 180 187 170 172 174 172 162 171 179 186 165 168 181 161 153
257 252 248 240 253 2 242 257 250 242 235 237 234 233 233 234 231 224 195 164 197 198 204 219 221 221 226 234 236 208 206 212 210 205 202 234 246 183 201 189 184 184 191 191 202 176 201 195 198 179 173 178 167 155 180 158 185 170 174 168 174 156 148
255 254 249 243 238 261 250 250 243 246 239 237 239 238 228 231 234 230 201 188 178 193 207 209 216 212 216 215 207 207 220 216 208 213 218 203 188 205 190 190 201 195 211 232 179 229 198 189 179 171 176 175 161 168 158 175 191 170 173 174 158 143 135
262 261 270 286 310 243 250 240 236 234 233 238 239 239 229 222 224 223 210 198 177 179 194 198 203 211 195 186 225 218 235 216 205 214 235 218 168 205 217 188 193 205 211 204 203 211 220 170 167 175 171 171 155 160 164 170 171 174 168 163 162 148 142
259 263 264 257 268 258 240 242 238 239 237 237 244 243 225 228 220 221 210 212 202 183 182 195 202 197 194 230 211 207 224 213 194 220 214 215 204 207 185 176 210 224 215 203 200 223 189 202 166 185 150 167 168 161 164 178 166 162 165 170 154 141 145
278 272 274 253 237 238 243 242 240 240 242 241 243 247 223 211 221 218 208 193 206 197 187 193 197 171 179 221 232 216 181 174 182 190 228 221 192 196 187 200 211 250 212 201 196 213 209 204 184 171 163 153 193 178 162 182 171 180 158 160 158 145 147
289 286 278 267 257 253 250 250 250 253 259 257 250 253 250 220 217 221 207 196 208 202 189 198 197 185 180 192 230 216 204 203 170 191 196 208 203 199 161 228 204 226 216 208 205 212 217 217 211 181 185 175 173 166 168 169 178 144 177 153 165 148 144
287 283 281 279 268 261 258 257 262 265 263 262 266 260 252 227 210 217 211 195 192 198 190 194 190 187 174 195 193 201 209 188 192 192 193 190 197 201 168 213 216 223 222 222 216 205 202 229 226 187 194 181 188 170 168 170 177 156 169 167 163 157 161
280 280 277 274 271 270 271 279 265 258 260 260 252 250 244 239 224 216 212 202 200 194 196 196 186 174 186 183 192 204 209 189 203 203 192 197 189 177 176 196 259 234 220 219 229 244 217 197 206 219 189 187 197 179 172 170 151 156 167 169 163 158 164
286 286 283 280 284 284 282 285 275 259 256 260 255 261 247 239 229 222 213 196 199 200 201 189 175 177 182 185 194 201 203 203 209 202 196 192 190 177 146 214 225 226 201 201 221 192 239 190 207 204 166 140 174 158 126 141 139 202 190 170 154 162 158
301 300 296 292 281 281 286 279 275 286 287 273 260 251 246 233 233 223 204 192 211 189 188 189 186 181 170 170 187 192 196 199 202 203 196 191 192 189 193 201 208 201 183 192 200 202 215 203 191 178 185 161 172 149 151 173 172 155 223 144 150 164 173
308 308 302 299 294 287 286 275 273 250 257 266 251 244 241 234 231 225 209 191 196 189 183 177 179 185 174 174 185 186 186 199 208 207 199 191 191 206 211 205 210 199 181 188 194 210 211 198 181 186 171 176 194 174 154 173 150 158 153 144 161 163 163
313 312 315 309 290 288 274 278 267 264 255 266 263 254 242 232 226 220 226 203 187 194 189 170 169 183 179 185 187 193 190 190 203 201 197 197 198 201 222 213 206 196 190 194 191 195 190 199 190 170 191 186 177 197 124 167 154 177 146 150 171 152 147
317 311 311 312 306 303 298 293 288 289 287 265 263 256 245 236 228 223 206 217 188 206 178 177 177 186 201 194 188 189 182 176 177 187 190 212 206 200 203 207 215 188 176 191 198 205 160 199 205 185 191 168 183 203 145 163 155 157 156 158 163 165 160
316 312 307 306 301 300 293 286 286 268 261 252 258 253 246 257 242 226 229 214 195 194 176 162 177 195 196 201 202 193 161 165 185 195 199 213 212 214 212 202 208 198 182 184 189 181 146 194 215 198 171 175 191 184 136 154 190 164 163 159 172 161 159
318 312 308 307 307 303 296 291 280 275 273 267 277 304 294 258 272 273 250 216 195 198 147 181 175 191 200 208 219 125 158 195 181 194 198 208 196 193 214 195 205 196 194 180 185 170 168 192 204 186 181 186 187 159 196 177 171 160 165 161 170 148 149
323 323 321 315 313 312 294 285 291 288 285 286 294 292 279 306 316 290 264 227 231 148 168 221 194 199 195 200 226 189 189 202 173 192 192 202 194 223 219 182 195 202 192 182 162 178 188 197 205 192 180 174 183 155 198 174 164 162 163 159 176 135 157
325 322 322 318 312 310 307 288 284 292 305 308 295 272 307 296 340 312 325 138 251 217 222 198 181 192 195 191 172 195 175 200 174 178 184 201 204 234 244 200 195 194 189 172 175 186 186 163 217 80 208 176 155 172 177 165 173 167 167 160 153 148 152
328 324 323 320 317 316 315 314 323 323 318 307 301 320 4 286 259 275 5 59 347 236 228 179 181 206 205 183 185 188 167 194 168 160 181 223 199 295 263 236 82 54 228 147 132 147 132 92 84 191 349 342 171 186 185 178 162 168 166 162 156 158 161
334 338 330 327 329 331 333 335 332 336 323 319 337 318 275 294 307 307 283 210 207 227 222 199 198 208 201 188 171 174 160 174 171 154 179 196 178 234 203 200 141 146 83 85 83 83 101 135 158 126 86 86 171 266 119 225 159 177 162 170 161 162 159
346 343 346 349 349 342 343 342 341 342 345 2 3 346 348 339 323 297 226 188 195 196 182 179 139 166 178 176 168 139 122 131 153 174 186 155 213 200 182 122 96 101 93 83 90 101 91 75 54 92 150 178 177 206 150 215 183 157 186 168 174 162 169
356 349 357 4 5 360 358 358 351 350 2 27 2 341 343 338 251 321 358 175 185 188 223 127 118 120 140 113 139 141 142 141 123 196 144 188 202 177 148 133 123 115 110 100 87 85 87 92 88 84 77 63 54 76 164 236 188 176 179 177 183 175 182
4 3 1 4 4 5 6 360 3 1 0 357 1 305 297 34 338 282 302 157 80 38 110 32 82 74 188 173 189 145 135 184 165 179 194 209 209 164 149 136 138 138 145 128 122 103 91 98 105 95 91 85 78 69 58 96 92 284 192 146 99 38 94
9 10 8 5 7 11 11 13 10 8 5 1 5 10 356 302 34 28 13 33 66 69 56 8 9 18 335 219 211 153 152 174 174 254 199 184 186 155 146 140 146 123 104 122 135 125 121 105 102 108 104 95 77 60 44 35 32 83 305 168 129 171 225
11 14 12 13 16 18 16 15 16 15 12 17 24 24 23 23 24 21 31 44 40 42 38 353 0 10 336 324 264 225 193 199 204 189 205 222 150 142 146 141 134 125 140 150 135 132 128 127 129 129 123 103 77 52 39 19 10 0 27 33 108 111 64
12 13 15 22 21 23 22 19 19 20 30 38 35 39 36 41 38 32 27 42 53 44 31 12 15 4 346 323 321 312 251 211 193 153 228 152 121 123 124 156 156 144 149 148 134 135 135 140 135 117 97 79 68 58 39 24 12 7 47 56 64 69 53
13 18 21 25 26 23 22 22 18 23 34 39 38 36 36 33 34 35 38 38 37 30 23 19 17 7 349 330 327 298 232 172 137 182 199 75 37 16 118 152 190 163 137 106 27 41 133 132 123 114 101 93 86 70 61 51 39 53 55 58 61 64 62
15 20 24 27 27 23 20 20 24 23 35 34 41 38 34 42 39 43 43 42 41 39 35 16 17 2 353 341 340 314 23 359 155 134 86 72 66 40 18 15 129 93 90 63 14 37 34 80 125 120 110 102 91 84 80 65 50 61 74 78 83 86 78
20 21 22 27 28 29 27 26 31 33 37 38 40 39 38 35 43 42 39 38 30 40 28 23 15 2 2 352 336 26 90 199 303 94 86 75 73 52 38 26 27 90 69 46 28 25 20 61 128 110 112 108 103 101 97 93 88 69 77 86 88 91 89
25 25 29 25 24 32 30 27 30 35 39 45 44 49 49 50 44 45 39 37 29 32 33 22 13 13 4 352 10 69 56 20 350 23 80 74 67 61 51 45 32 36 52 47 41 31 34 48 30 117 121 114 104 109 108 117 117 117 115 114 108 104 108
27 27 31 33 30 29 31 29 27 35 39 39 46 49 54 55 55 50 40 34 34 26 28 23 19 14 8 11 25 76 77 16 56 82 79 73 61 51 47 48 37 32 53 49 47 43 37 44 53 95 123 124 113 101 125 121 69 174 149 84 62 59 60
31 30 29 38 42 38 35 33 29 33 44 50 53 55 54 53 54 52 46 41 40 33 29 25 20 21 22 27 32 45 63 71 62 60 57 52 44 41 37 34 42 33 56 55 53 50 47 43 45 50 44 53 47 38 95 117 69 58 76 91 97 89 88
38 37 34 35 39 41 40 41 41 37 30 37 46 50 52 54 54 52 51 46 44 41 34 31 22 27 31 41 40 41 60 51 61 82 65 66 57 40 43 37 31 41 51 57 55 54 53 49 43 48 38 40 35 33 52 73 52 49 69 59 88 101 100
41 41 42 41 42 44 41 44 44 44 44 45 45 47 44 44 49 52 53 49 47 47 43 36 33 32 33 43 50 50 49 51 56 65 75 70 66 57 46 44 38 50 52 51 52 49 49 47 49 36 33 29 26 31 41 47 56 64 72 78 77 91 85
46 45 42 43 44 44 43 44 48 49 52 54 54 52 48 46 49 49 49 49 48 54 52 49 43 44 43 42 52 58 59 54 56 69 66 66 61 54 46 43 43 51 52 51 49 47 45 43 42 37 27 20 6 22 46 54 51 53 69 98 105 105 106